Location: Sungai Juaw
(2.6833°N, 113.5333°E)
Time: 23:15:32
(UTC+00:00)

Meteor 1-24 Rocket - Pass Details

Date: 04 August 2024
Orbit: 790 x 925 km, 81.3° (Epoch: 19 September)

Event Time Altitude Azimuth Distance (km) Brightness Sun altitude
Rises 21:18:21 0° 342° (NNW) 3,529 6.9 -16.7°
Reaches altitude 10° 21:20:55 10° 335° (NNW) 2,600 6.2 -16.1°
Maximum altitude 21:26:30 42° 266° (W) 1,284 4.2 -14.8°
Drops below altitude 10° 21:32:09 10° 196° (SSW) 2,621 5.9 -13.5°
Sets 21:34:46 0° 189° (S) 3,560 6.7 -12.8°
